Wind_Speed
15 15 14 14 14 13 13 13 13 13 13 13 13 13 12 12 12 12 11 11 11 10 10 11 10 10 11 11 11 11 12 12 12 12 13 13 13 13 14 14 15 14 14 15 15 16 16 16 15 16 17 18 19 19 20 18 15 14 12 10 9 8 7 6 6 5 4 6 7 8 8 8 9 10 10 11 10 7 5 4 5 7 11 15 18 19 18 16
15 15 15 14 14 13 13 13 13 13 13 13 13 13 12 12 12 12 12 11 11 10 10 10 11 10 11 11 11 11 11 11 12 12 12 13 13 13 14 14 14 14 13 14 15 15 15 16 16 17 17 18 18 18 18 18 17 16 13 10 8 8 7 6 6 6 6 7 8 9 9 9 11 11 11 11 8 6 5 6 8 11 14 16 18 20 20 19
16 16 15 15 14 14 14 14 14 14 13 13 12 12 12 12 11 11 12 12 11 10 10 10 10 10 10 11 11 11 11 11 11 12 12 12 13 13 13 13 14 14 13 13 13 14 14 15 17 17 17 17 16 15 16 16 16 15 13 11 9 9 8 7 8 8 8 8 9 10 9 10 12 12 11 9 6 6 6 6 9 12 14 15 18 20 21 20
16 16 16 15 15 14 14 14 14 13 13 13 12 11 11 11 11 11 11 10 10 10 9 9 10 10 10 11 11 11 12 11 11 11 12 12 12 13 13 13 13 13 13 13 12 13 14 14 15 15 15 15 14 13 13 14 14 12 12 10 8 8 8 8 8 7 7 6 7 9 8 9 11 11 10 7 4 5 6 6 7 10 12 13 16 18 19 19
16 16 16 15 14 14 14 14 13 13 13 12 11 11 10 10 10 10 9 9 9 9 9 9 10 10 10 10 11 11 11 11 11 10 11 11 11 11 12 12 12 12 12 12 12 12 12 12 12 12 12 12 12 12 11 11 11 10 10 8 7 7 7 7 7 7 7 5 5 6 7 8 10 10 8 6 4 5 5 4 4 5 8 10 12 15 17 19
16 16 15 15 14 14 14 13 13 13 12 12 11 11 10 10 9 9 8 8 8 8 8 8 9 10 10 10 10 11 12 11 11 11 11 11 11 11 11 12 12 12 12 12 12 11 11 10 10 10 11 10 9 10 10 9 10 9 9 8 6 5 5 5 6 7 7 5 4 5 6 8 10 9 5 4 5 6 5 3 3 4 6 8 10 12 15 17
16 15 15 14 14 13 13 13 13 12 12 12 11 11 11 10 9 8 7 7 7 7 8 8 9 10 10 10 10 11 12 11 11 11 11 11 12 12 11 11 12 12 11 11 11 10 10 9 8 8 10 10 9 9 10 10 10 8 9 8 6 5 5 5 5 7 7 6 6 7 7 8 9 8 5 4 5 6 4 3 4 7 9 10 10 11 13 15
16 16 15 14 13 13 13 13 13 12 12 12 12 11 11 11 10 8 7 6 6 7 7 8 9 10 11 11 11 11 12 12 12 12 12 12 12 12 11 11 11 12 11 11 11 11 11 9 8 8 10 10 10 9 9 10 9 8 7 7 6 6 7 6 6 5 5 5 5 5 6 6 7 8 6 4 5 5 5 5 6 10 12 11 11 11 12 13
16 15 15 14 13 13 12 12 13 12 12 12 12 12 11 11 10 8 7 6 6 7 7 8 9 10 11 12 12 12 11 13 14 13 12 12 12 13 12 11 11 11 12 12 11 11 12 11 10 10 11 11 10 9 9 8 8 7 7 6 6 7 7 8 6 4 4 2 1 1 2 4 5 6 6 5 6 5 5 5 7 10 11 10 10 11 11 12
17 15 14 13 13 12 12 12 12 12 12 12 12 12 11 11 10 9 8 7 7 7 8 9 10 11 11 12 13 13 12 12 15 15 13 12 12 12 12 12 11 11 12 13 13 13 12 12 11 11 11 11 11 10 9 8 8 7 6 6 7 7 7 8 7 6 7 6 4 3 3 4 4 3 4 5 6 7 5 5 7 9 11 11 10 11 11 11
18 16 13 12 12 12 12 12 12 12 12 12 12 12 12 11 10 10 9 8 8 8 9 9 11 11 11 11 13 14 14 13 14 14 14 14 14 13 12 12 12 11 12 13 14 14 13 12 11 12 11 11 12 12 10 9 9 7 6 7 7 8 9 10 10 9 10 9 4 2 4 5 5 4 3 4 3 4 4 4 7 9 10 11 11 12 10 10
20 16 12 11 11 12 12 12 12 12 12 12 12 12 12 12 11 10 9 9 9 9 10 10 11 12 11 11 13 14 14 15 14 14 14 14 14 14 14 13 12 12 12 13 14 14 14 13 11 11 12 12 13 13 12 11 10 9 8 8 9 10 11 12 13 12 12 12 6 1 5 6 7 8 8 5 2 0 1 4 7 9 10 11 11 12 10 10
19 15 11 10 11 11 11 11 11 12 12 12 12 12 12 11 10 10 9 9 10 10 11 11 11 12 12 10 12 15 14 14 15 14 14 13 13 14 14 14 13 13 13 13 13 13 14 13 12 11 11 11 13 14 14 13 12 11 11 10 11 12 14 15 15 14 14 14 11 7 10 15 16 17 16 11 6 3 2 4 6 8 10 10 11 11 10 10
17 15 11 10 10 11 11 10 11 11 11 11 10 11 10 9 9 9 9 9 9 10 11 12 11 12 12 10 11 15 15 14 14 15 14 12 12 12 13 14 14 14 14 13 12 13 14 14 13 13 12 11 12 14 15 15 14 14 14 14 14 15 17 19 17 15 16 16 15 13 14 18 20 20 19 15 10 7 6 6 7 7 9 9 10 11 9 9
16 14 12 10 10 11 11 10 10 10 9 8 9 9 9 9 9 9 9 9 9 10 11 12 11 11 11 10 10 13 14 14 14 15 14 13 11 11 12 13 14 14 15 14 13 13 14 14 13 14 14 13 13 14 14 16 17 17 16 15 17 16 17 21 20 17 18 17 17 17 16 18 20 20 20 17 13 12 9 8 7 6 8 9 9 10 8 7
14 14 12 11 10 10 9 9 9 9 8 7 8 9 9 10 10 10 10 10 10 10 11 12 12 11 11 11 11 11 13 14 14 14 14 14 12 11 12 12 13 15 16 16 14 14 14 14 14 14 15 15 16 15 14 16 18 19 17 15 16 17 17 21 22 21 22 20 20 21 21 22 22 22 20 18 17 16 12 10 8 6 7 8 8 7 5 4
13 13 12 11 10 9 8 8 8 7 7 7 7 9 10 11 11 11 12 12 12 11 12 14 14 12 11 11 11 12 13 14 14 14 14 14 13 12 11 12 13 15 16 17 16 14 13 13 14 15 16 18 19 18 15 15 18 19 18 16 16 18 18 19 22 25 26 24 23 24 25 25 24 22 21 22 21 18 14 12 10 9 9 9 8 5 3 2
12 12 12 11 10 9 8 7 7 7 7 7 7 8 10 11 12 12 13 13 13 12 12 14 16 14 12 10 11 12 13 15 15 14 14 14 14 13 12 12 14 15 17 17 17 15 13 13 14 16 19 21 20 19 17 16 17 18 19 17 17 18 19 18 19 25 29 28 26 27 29 28 24 22 22 24 24 19 16 15 14 13 12 12 10 6 4 4
10 11 11 10 9 8 8 7 7 7 7 7 8 9 10 11 12 13 13 14 13 13 13 15 16 16 14 11 11 12 14 16 16 15 14 14 15 15 14 13 14 16 18 18 18 16 14 14 14 18 23 23 20 18 18 18 18 18 19 18 17 17 17 17 18 22 28 29 28 29 31 29 25 23 23 25 26 23 20 18 16 16 15 15 14 11 9 7
10 10 10 9 9 8 7 7 8 8 7 7 8 9 11 11 11 12 14 15 14 14 15 16 18 18 17 15 13 13 14 16 16 15 14 14 15 16 16 14 15 16 18 19 19 18 16 15 16 22 24 23 20 19 19 19 20 20 20 20 19 18 16 17 18 20 28 30 27 27 30 29 26 24 24 26 27 25 24 22 19 18 16 16 16 16 14 11
10 9 9 9 8 7 7 7 7 9 10 10 10 11 13 13 12 12 13 15 16 15 15 16 18 18 18 17 16 16 16 16 16 15 14 14 14 16 16 16 17 17 18 20 21 20 18 17 20 24 25 23 21 20 20 21 22 22 22 22 20 20 19 17 18 21 28 32 29 27 28 26 25 26 26 27 27 26 25 25 24 22 20 18 18 19 18 15
11 8 9 9 8 8 7 7 8 9 11 11 11 13 14 15 16 15 14 16 16 17 17 17 17 18 18 18 17 16 17 17 16 16 16 15 15 16 16 16 18 18 19 20 22 21 19 19 24 25 23 23 21 21 22 22 23 23 23 24 21 20 21 18 17 22 27 30 30 29 29 26 25 26 28 28 27 25 25 26 27 26 24 23 21 21 21 19
13 10 8 9 9 9 8 9 9 10 11 12 12 14 15 16 17 19 19 18 17 18 19 19 20 19 19 18 17 16 18 18 17 17 18 18 17 17 17 18 18 19 21 21 22 20 18 22 26 24 23 23 22 22 23 22 23 24 24 24 22 22 25 20 17 21 25 28 30 29 29 27 25 25 26 26 24 23 24 26 27 28 27 27 26 24 23 22
14 12 10 9 9 10 10 10 11 12 12 13 13 15 16 17 18 20 21 21 20 19 20 20 21 20 20 19 17 17 18 18 17 18 19 19 20 20 20 21 21 21 22 22 22 19 19 25 26 24 25 25 24 23 23 24 24 25 24 24 25 25 27 26 21 21 22 24 29 33 31 26 23 23 23 23 22 21 23 25 25 26 27 27 27 25 24 23
14 14 13 11 11 11 11 11 12 13 14 14 15 16 17 18 20 22 23 23 23 22 22 21 22 21 20 19 18 19 20 19 20 20 20 21 22 23 23 24 24 24 24 24 23 20 21 26 26 25 26 27 26 23 23 26 27 27 25 24 28 28 28 28 26 26 24 21 25 32 33 25 19 20 21 21 20 21 23 25 24 24 24 24 23 23 24 23
14 14 14 14 13 13 12 13 13 14 15 16 16 17 18 19 21 22 24 24 25 25 24 23 23 23 22 20 20 22 23 23 23 22 22 23 24 26 26 27 27 27 28 27 25 24 24 26 27 27 27 27 27 24 22 27 31 31 26 24 29 31 30 30 29 30 30 26 25 26 28 25 18 15 17 19 19 19 21 23 22 20 20 21 21 21 23 23
15 15 14 15 15 15 15 16 16 17 17 18 19 19 20 21 22 23 23 25 26 26 25 25 25 25 24 24 23 24 25 25 26 25 25 25 25 27 28 29 29 29 31 30 28 27 27 27 28 28 28 27 27 26 25 29 33 33 28 27 30 30 31 31 30 31 32 32 30 25 25 27 22 16 15 18 18 17 18 20 20 19 18 19 20 21 22 22
16 16 16 15 16 17 18 18 19 19 20 21 22 22 23 23 24 24 24 26 26 25 26 26 27 27 27 28 27 27 26 25 27 28 28 27 27 28 29 30 31 30 32 32 30 29 29 29 29 29 28 27 27 27 27 29 31 31 29 29 30 30 31 30 31 31 31 33 32 26 25 29 28 23 20 18 17 18 18 18 19 21 20 18 19 21 22 23
17 18 18 18 18 18 19 20 21 21 22 23 24 24 24 25 25 26 26 27 26 26 27 27 28 28 28 29 29 29 28 27 28 29 29 29 29 30 30 31 32 32 32 33 31 28 29 30 29 29 29 28 28 28 27 28 29 29 30 30 29 30 30 30 31 31 31 34 32 27 28 31 31 29 25 20 19 19 19 19 19 20 20 19 19 21 23 24
17 18 19 20 20 20 21 21 22 23 24 24 25 26 26 27 27 28 28 28 28 28 29 29 29 29 29 30 30 31 31 30 29 29 30 31 31 32 32 32 33 34 34 33 32 30 29 29 29 29 29 29 29 28 28 28 29 29 31 31 30 31 31 32 32 31 33 35 32 28 30 33 33 32 29 24 22 22 21 21 20 20 19 19 20 22 23 24
18 19 20 20 20 21 22 23 24 25 26 27 27 28 28 28 28 29 29 29 30 30 30 31 31 31 31 31 31 32 32 31 30 30 31 32 32 33 34 35 35 35 35 34 33 32 31 30 30 30 30 31 30 29 28 28 29 29 30 31 32 32 33 34 33 33 36 36 34 33 34 34 35 34 30 27 26 25 24 22 20 19 18 17 19 21 24 26
20 19 20 20 20 21 22 23 24 25 27 28 29 29 30 30 30 29 30 30 30 29 30 31 32 33 33 33 32 32 32 32 31 31 32 32 34 35 36 37 37 37 37 35 35 35 34 32 31 31 31 32 31 30 30 30 29 30 31 32 32 34 35 36 36 37 39 39 37 37 38 37 36 35 31 28 28 28 27 24 21 19 18 17 18 19 23 26
21 21 21 21 21 22 23 24 25 26 27 28 29 30 31 31 31 30 30 31 31 30 30 30 32 33 34 34 33 33 33 33 32 33 34 34 35 37 38 39 39 40 40 39 38 39 37 35 33 31 32 33 32 30 31 30 30 30 31 32 33 35 37 38 39 40 41 41 40 40 41 41 39 36 34 31 29 29 28 26 24 22 21 20 19 19 20 24
22 22 22 22 22 23 24 25 26 27 28 29 30 31 32 32 32 31 30 30 31 31 30 30 31 32 34 34 34 34 34 34 33 34 36 36 37 39 41 41 41 42 42 41 42 42 41 39 36 34 33 34 33 32 31 31 29 30 32 33 33 34 37 40 41 43 44 44 44 43 44 45 43 38 36 34 32 30 29 28 27 26 24 23 22 20 20 21
22 23 24 24 24 25 26 27 28 29 30 31 32 32 33 33 33 32 32 31 31 30 30 31 31 31 33 34 34 34 35 35 34 35 36 38 39 40 41 42 42 43 43 42 43 44 43 42 40 38 37 37 37 36 35 33 32 32 32 33 35 35 37 40 41 43 45 46 47 46 46 48 47 42 39 37 35 33 31 30 29 29 28 26 24 24 23 23
24 25 26 26 27 27 28 29 30 31 32 33 33 34 35 35 35 34 33 33 32 30 29 30 31 31 32 33 34 34 35 35 35 35 36 38 39 40 41 41 42 43 43 43 43 44 45 43 42 41 40 40 40 40 39 38 37 36 34 34 35 37 38 40 42 43 44 47 48 48 48 48 48 47 44 40 38 36 35 33 32 32 31 29 27 27 27 27
27 28 29 29 30 30 31 32 33 34 34 35 36 37 37 37 37 36 35 34 33 32 30 29 29 30 32 32 33 34 35 36 37 36 36 38 40 41 40 40 41 42 42 43 43 44 45 44 42 42 41 40 41 41 41 42 42 40 39 37 37 38 39 40 43 44 45 48 50 49 49 49 49 50 48 45 42 39 37 36 35 35 34 31 29 29 30 30
29 30 31 31 32 32 33 34 36 37 37 38 38 39 39 40 39 38 37 36 34 33 32 31 30 29 30 30 30 32 33 35 37 37 37 38 40 41 41 40 41 41 41 42 42 43 45 45 44 43 42 41 41 42 42 43 43 42 42 41 40 40 42 42 44 47 47 50 52 51 50 50 50 50 50 48 45 43 41 39 39 39 38 37 35 33 32 32
31 32 33 33 33 34 35 36 38 38 39 40 40 41 41 41 41 40 39 37 35 34 33 32 32 30 30 30 30 30 31 32 34 36 37 38 40 41 41 40 39 39 40 41 43 43 45 46 46 46 45 44 44 44 45 45 44 43 43 42 42 42 44 45 46 49 50 51 53 53 52 50 50 51 52 51 48 45 44 43 42 43 42 42 40 38 37 36
33 33 34 35 35 36 36 37 38 40 41 41 42 41 41 41 41 41 40 38 35 34 34 33 32 32 31 31 32 32 32 32 33 34 36 37 38 39 39 39 38 38 39 40 43 44 45 46 47 46 46 46 47 47 47 47 47 46 45 44 44 44 45 46 48 49 52 54 55 56 55 51 50 51 53 53 51 48 46 45 45 46 45 45 44 43 41 39
35 35 36 36 37 38 38 38 39 41 42 42 42 42 41 40 41 41 40 38 36 35 34 34 33 33 32 32 33 34 34 33 34 34 35 35 36 37 37 37 37 37 38 39 41 43 44 46 47 46 46 46 47 47 48 48 49 49 49 49 49 48 47 48 48 48 50 53 54 57 58 52 49 51 53 53 53 52 50 49 48 48 48 47 48 48 45 43
37 37 37 38 38 39 40 40 41 42 43 43 43 42 42 41 41 40 40 38 37 36 36 35 34 34 34 33 33 34 34 35 35 34 34 34 34 34 35 35 36 36 37 39 40 41 43 45 47 47 47 47 47 48 48 48 49 49 50 52 52 52 52 52 52 51 51 52 52 55 57 53 48 49 51 52 53 54 54 53 51 50 49 49 50 51 49 47
38 39 39 39 40 41 42 42 42 43 43 44 43 43 43 42 41 41 40 38 37 37 37 37 36 36 35 35 35 35 35 36 36 35 34 34 33 33 33 34 34 36 37 38 40 41 42 45 48 48 47 47 48 49 48 49 50 50 52 53 53 54 54 54 56 56 54 54 53 55 58 54 47 47 49 50 52 52 54 55 54 52 51 50 51 52 52 50
39 40 40 41 42 42 43 43 43 44 44 44 44 43 43 43 42 42 41 39 38 38 38 38 38 37 37 36 37 37 37 37 38 36 35 35 35 35 35 35 35 36 38 39 41 42 43 46 49 50 49 49 49 49 49 50 50 51 52 53 54 55 55 56 57 57 57 58 57 58 60 56 49 47 47 47 48 50 51 53 55 55 53 51 51 52 53 53
40 41 42 43 43 43 44 44 43 44 44 44 44 44 44 44 44 43 41 40 39 38 39 39 39 38 38 38 38 38 38 38 39 38 38 37 38 37 37 39 40 40 41 42 43 45 47 49 50 51 52 53 52 52 53 53 52 52 53 54 55 55 56 57 58 59 60 59 58 60 61 57 52 51 48 46 46 47 47 49 52 55 54 53 52 52 53 55
42 42 42 44 45 45 45 45 44 44 44 44 43 43 43 43 44 44 43 42 40 39 39 39 38 39 39 39 39 40 40 40 40 41 41 41 41 40 40 41 43 44 44 45 46 47 49 52 52 52 54 55 56 56 56 56 56 56 56 57 58 57 57 57 58 60 60 59 61 61 58 56 53 51 50 49 48 47 46 47 49 52 53 54 53 52 51 53
44 44 44 45 46 47 47 47 46 46 45 45 44 43 42 42 43 44 44 43 42 41 40 39 39 39 40 41 41 42 42 42 42 43 43 44 44 44 44 45 46 47 47 48 49 50 51 53 54 54 54 56 58 58 57 57 58 58 59 60 60 60 59 59 60 61 60 62 65 63 59 58 56 51 51 51 50 50 50 50 50 51 52 54 55 52 47 46
46 46 46 46 47 48 48 48 48 48 48 47 46 44 43 42 42 42 43 43 43 43 42 41 41 41 42 43 44 44 44 44 44 45 46 47 47 47 48 49 49 50 50 51 51 52 55 56 56 56 57 57 59 59 57 57 58 59 60 60 60 60 61 61 62 62 62 65 67 65 62 63 60 54 51 51 51 52 53 52 52 53 54 55 57 57 53 50
48 48 48 48 49 49 49 49 49 49 49 49 48 47 45 43 42 42 42 42 43 43 42 43 43 43 44 45 45 46 46 46 46 46 47 48 49 49 50 50 51 52 52 52 52 54 57 58 58 60 60 59 60 61 60 59 61 62 62 61 60 59 60 62 63 63 63 65 66 64 64 64 60 56 54 52 51 52 53 53 53 53 55 56 57 59 60 59
50 50 50 50 51 51 51 51 50 50 50 50 50 49 47 45 44 44 43 43 42 42 42 42 43 43 45 45 46 46 46 46 47 47 47 48 49 50 51 51 52 53 53 53 53 54 56 57 57 59 62 61 60 61 62 62 63 66 65 62 59 58 60 61 62 62 62 63 63 63 64 62 56 55 57 57 55 54 54 54 53 53 54 56 58 60 61 62
51 51 52 53 53 53 53 53 53 52 52 52 52 51 49 47 45 45 45 45 44 43 42 41 42 43 44 44 44 45 45 47 48 48 49 50 51 52 53 54 54 55 55 55 56 57 58 59 59 61 65 65 62 61 62 63 66 68 67 62 59 59 59 60 60 60 61 62 62 63 64 63 58 57 60 62 61 60 58 56 55 54 55 56 58 60 63 64
52 52 53 54 55 55 55 55 55 54 54 54 54 52 51 49 47 46 46 46 46 44 42 41 41 42 43 44 43 44 45 46 48 49 50 52 53 54 55 56 57 58 58 59 61 62 63 64 65 66 70 70 67 66 66 68 70 70 65 61 61 61 61 61 61 61 61 63 64 65 64 63 61 60 62 63 63 63 62 60 58 58 57 57 58 60 63 66
Wind_Direction
332 332 333 334 335 337 339 342 343 343 342 342 342 342 341 338 335 332 328 326 324 326 326 326 329 331 330 335 340 342 345 346 347 347 348 351 353 356 357 359 2 4 7 9 11 15 14 12 10 12 18 21 20 12 3 359 351 348 346 342 336 333 330 329 339 344 8 23 17 16 15 16 26 30 25 28 38 50 52 31 9 15 34 45 43 36 29 22
331 331 332 333 334 335 336 337 338 337 337 338 338 339 339 338 336 332 330 329 329 330 329 326 326 327 327 329 333 336 338 342 343 343 345 348 348 351 354 357 0 360 5 10 8 9 9 6 7 9 13 18 18 12 6 359 352 347 345 344 342 345 350 351 346 342 0 10 5 12 15 8 16 24 25 37 43 37 37 34 37 48 54 52 44 37 31 24
328 329 329 329 330 331 331 332 332 333 334 334 336 337 338 338 336 332 330 331 332 333 331 326 324 325 325 324 328 331 331 335 338 338 340 343 343 345 349 354 358 357 0 7 6 5 3 3 7 6 7 11 13 13 11 4 358 350 344 344 341 348 356 354 349 348 2 11 7 8 9 5 6 15 33 56 54 21 19 37 56 63 60 53 44 36 29 25
327 326 326 326 326 326 327 328 330 332 333 333 334 336 337 337 335 331 329 330 333 334 334 328 323 323 325 324 327 326 326 330 333 333 333 336 338 340 344 350 355 354 355 0 2 1 360 1 3 1 0 4 6 10 15 10 3 350 343 346 341 346 354 352 348 345 356 14 16 7 1 359 356 11 45 83 79 32 29 39 54 62 60 54 46 38 30 24
327 326 326 325 325 325 325 327 330 332 333 334 335 338 339 338 335 330 329 333 336 337 336 331 326 324 326 328 328 324 323 326 327 328 327 328 332 336 339 344 349 350 351 353 355 356 355 355 357 353 350 356 1 5 11 10 6 349 339 344 341 349 4 3 356 347 350 5 21 11 1 358 354 11 52 102 86 46 46 40 27 39 49 50 48 42 32 24
329 327 327 326 327 327 327 327 329 332 335 337 339 340 340 340 337 332 332 339 340 339 339 336 332 329 329 333 331 325 323 325 325 324 325 325 327 332 335 338 342 345 346 346 346 347 346 345 346 341 336 345 357 359 358 358 2 348 332 339 344 356 18 20 11 4 7 24 49 40 22 12 7 18 54 98 59 37 37 26 349 355 17 33 40 40 33 25
329 329 329 329 329 327 326 325 326 330 333 337 340 341 340 340 341 336 333 341 341 337 340 339 334 333 333 336 335 327 326 327 324 324 326 325 324 327 331 334 335 337 339 339 336 334 332 333 334 327 325 338 350 352 348 343 351 347 330 334 341 345 356 7 14 18 33 63 77 65 51 35 26 35 64 71 38 30 18 3 9 8 5 11 21 28 27 23
327 328 328 330 329 327 326 324 326 329 330 333 336 337 336 336 342 339 328 333 335 330 334 334 332 334 334 336 334 329 328 325 322 325 328 328 326 324 327 330 330 330 330 330 327 323 322 326 329 321 322 335 343 345 345 335 340 344 330 328 328 329 338 344 355 14 38 75 96 86 70 53 40 45 56 50 39 31 5 4 24 24 15 9 9 15 17 15
324 323 324 327 328 328 328 326 327 329 330 330 331 332 331 333 340 336 322 324 326 321 324 326 328 332 334 334 331 326 327 323 319 325 332 332 327 323 324 325 326 325 323 322 318 315 321 329 330 323 324 331 333 337 335 325 331 339 330 322 316 318 327 332 334 343 344 347 29 77 77 56 44 48 38 37 59 55 29 24 25 23 24 22 12 9 10 8
329 321 319 322 324 326 328 328 329 331 330 329 331 330 328 332 336 330 321 320 316 311 314 319 321 327 332 331 327 321 320 319 319 325 330 331 326 324 323 322 324 323 319 316 313 317 328 333 329 322 322 322 321 327 326 315 321 329 324 310 299 295 304 313 311 307 309 310 324 329 336 354 354 26 27 24 65 76 65 44 24 18 21 22 15 6 6 4
337 326 316 318 322 322 324 326 327 329 327 328 332 329 328 331 330 326 321 315 310 307 309 311 314 320 326 327 321 315 314 317 321 324 326 327 327 326 326 325 325 324 318 314 315 325 331 331 326 319 317 314 313 318 319 313 314 314 306 290 278 277 285 296 302 301 300 306 327 351 326 328 329 333 350 359 42 82 78 41 24 21 17 14 11 6 2 360
341 332 318 317 322 320 321 322 322 325 323 327 332 327 327 329 325 321 317 312 306 303 303 304 309 313 319 323 314 309 313 317 319 320 322 326 326 325 326 327 327 325 317 314 320 328 328 327 325 314 310 310 309 312 314 315 313 303 292 277 266 271 277 286 299 299 296 303 310 290 287 295 310 312 303 301 315 92 48 18 15 15 14 10 5 3 359 356
344 339 327 321 323 322 321 321 323 325 323 327 328 322 325 327 323 319 314 309 303 300 299 300 305 308 313 319 308 305 313 316 314 315 320 324 322 322 323 324 326 323 315 315 323 326 323 322 319 307 304 306 306 307 309 311 309 296 286 274 266 269 272 282 295 297 294 295 295 283 279 294 313 315 302 290 283 275 298 339 357 2 4 4 359 356 353 351
348 345 337 326 323 322 323 326 330 330 329 330 324 321 327 331 330 326 318 309 303 300 298 299 303 305 311 315 305 305 311 313 309 310 316 319 319 319 317 319 322 318 312 313 320 320 317 317 314 306 302 301 301 301 302 302 299 291 285 277 277 277 279 290 295 291 289 287 289 289 282 295 313 314 300 289 285 283 280 304 331 347 350 352 352 350 349 350
351 350 344 332 324 323 326 332 336 337 340 339 327 327 335 339 341 338 330 324 316 309 305 303 304 306 310 311 307 305 308 309 306 309 314 316 318 317 312 314 314 311 308 309 314 316 314 314 311 305 301 297 294 296 296 294 293 295 293 285 286 284 279 289 292 283 281 279 280 284 281 289 302 302 294 286 285 287 283 293 310 331 338 338 342 345 348 350
352 352 350 342 333 330 332 337 342 346 354 349 336 336 340 341 342 341 337 334 331 324 316 310 308 309 311 313 315 310 307 305 304 308 311 312 315 314 312 311 308 306 303 304 309 311 312 312 309 304 298 292 292 297 297 291 290 295 299 291 285 284 277 281 284 278 275 273 271 274 276 282 290 293 288 281 281 287 293 300 304 312 322 323 328 339 347 345
351 353 353 351 346 343 341 344 351 357 0 356 346 342 340 338 338 341 340 337 336 332 321 314 312 315 320 322 319 313 306 301 302 306 308 310 312 311 310 306 303 301 299 301 304 308 315 313 307 300 290 287 293 302 303 292 290 293 297 294 285 284 281 278 278 275 276 276 271 271 275 280 283 282 279 278 278 283 291 299 299 297 303 308 311 320 323 317
349 351 354 355 354 353 350 353 2 4 1 360 354 345 339 335 336 342 344 341 341 337 327 319 317 320 327 326 316 308 303 299 300 304 308 311 310 308 307 303 301 298 296 298 301 310 317 310 306 295 284 288 297 305 305 297 296 296 295 296 291 288 289 285 275 270 274 278 276 274 276 279 280 276 273 273 273 278 284 290 294 296 298 302 301 295 275 275
345 347 351 355 356 357 357 357 3 7 5 360 351 343 337 334 337 342 344 345 345 343 335 325 323 327 330 327 316 306 301 300 303 309 312 311 309 307 305 305 302 297 298 301 304 310 310 306 302 287 285 296 306 308 305 301 300 298 295 296 293 290 291 289 281 272 271 273 274 274 275 278 280 278 273 269 271 275 279 281 286 292 297 300 298 294 282 274
343 341 345 350 353 355 359 358 356 356 356 350 341 338 334 332 336 340 340 342 344 342 336 329 329 331 331 331 323 311 305 305 308 312 311 309 309 306 307 308 302 300 304 305 306 305 306 309 297 284 289 301 309 308 304 301 299 296 295 295 294 296 294 290 291 285 277 277 277 277 278 281 284 283 278 273 275 277 278 279 278 280 288 292 292 292 291 283
343 339 337 341 345 346 349 349 346 343 342 339 333 332 330 325 327 333 334 333 336 337 335 331 330 330 329 329 325 318 313 311 310 311 309 308 307 306 309 309 304 305 308 306 303 304 310 308 291 287 295 303 305 304 301 299 298 298 296 295 298 302 299 296 298 289 281 283 286 283 281 283 285 286 284 280 281 281 280 281 280 277 277 281 284 286 288 286
340 338 333 332 333 332 330 330 330 329 331 329 325 325 323 319 321 325 326 326 327 329 329 329 328 327 327 326 324 322 317 315 313 311 310 309 308 309 309 305 304 307 305 302 301 306 310 296 288 293 299 301 300 299 298 298 297 296 295 297 301 299 293 294 292 284 281 285 287 283 281 281 281 282 284 283 282 280 279 280 282 282 276 272 275 279 279 281
340 336 331 327 324 321 318 317 316 316 318 318 315 317 316 314 314 318 321 322 322 322 322 323 323 324 324 323 323 320 316 314 311 310 311 311 310 312 309 305 306 304 301 302 304 309 305 290 292 299 297 296 294 293 296 295 292 291 292 295 298 293 290 290 282 277 282 289 289 282 278 279 277 274 276 279 279 278 278 279 282 284 280 272 271 273 272 275
344 337 331 326 321 317 312 311 310 309 310 310 309 311 312 310 310 312 316 317 317 317 316 316 316 316 318 318 318 315 313 311 308 307 308 308 310 310 308 307 307 303 301 304 308 310 300 293 300 302 298 296 294 294 295 292 289 287 288 292 292 289 289 290 287 279 277 280 283 282 280 280 276 270 267 267 273 278 279 280 282 284 284 279 273 268 265 271
347 341 334 328 322 317 311 308 307 306 305 305 306 309 309 308 308 309 311 312 312 312 312 312 311 311 312 312 312 311 310 308 305 304 302 302 306 307 306 306 306 305 305 307 310 309 301 301 306 305 303 303 302 301 296 293 291 287 288 290 289 288 289 292 293 291 285 275 271 275 281 283 275 269 268 267 272 278 279 279 282 283 283 284 278 264 258 265
342 341 337 332 326 322 316 312 310 307 306 306 307 309 309 308 308 308 310 309 309 309 310 310 310 309 309 307 307 307 307 305 303 301 298 299 302 304 305 305 306 307 306 307 309 308 305 306 308 307 307 308 308 305 295 291 291 292 294 291 288 291 294 296 296 294 294 291 279 274 281 288 284 273 275 276 276 276 276 276 276 278 276 277 276 261 252 258
334 334 333 330 328 325 321 318 315 313 311 310 309 309 309 309 308 308 309 308 308 309 308 308 307 306 305 305 304 302 302 302 301 300 299 299 300 301 303 303 304 305 304 305 307 308 308 308 307 308 308 308 306 302 294 292 293 297 298 291 289 292 294 295 294 292 293 293 290 289 292 295 296 293 284 280 281 280 278 275 270 268 267 270 269 256 249 252
329 328 326 325 324 323 320 318 316 315 314 312 311 311 310 310 309 309 309 307 307 307 306 305 304 303 302 302 301 300 298 297 297 298 298 297 297 298 299 300 300 302 301 302 306 308 308 307 307 307 306 304 301 298 294 292 294 295 294 291 290 290 289 289 288 288 290 289 291 299 301 295 296 298 294 289 290 290 288 282 272 265 264 269 264 250 246 249
326 325 324 323 322 322 320 318 317 316 315 314 313 313 312 312 311 310 309 308 307 306 304 304 303 302 301 301 301 300 298 297 295 295 295 295 295 296 296 297 297 298 298 299 303 305 303 304 305 305 304 302 299 296 294 292 291 291 289 289 288 287 286 286 285 286 288 287 291 298 295 292 293 294 296 299 298 296 294 289 281 273 269 269 263 250 246 248
323 323 323 323 324 324 323 321 320 318 318 318 317 316 315 314 313 312 311 310 308 306 305 303 302 301 301 301 301 300 299 298 296 295 294 294 294 293 293 293 293 294 296 298 300 300 299 300 300 301 301 298 296 295 294 293 293 292 292 291 290 288 288 287 287 287 286 287 290 291 287 287 289 291 295 300 298 296 295 291 288 285 280 275 267 256 249 248
320 321 321 323 325 326 325 324 323 322 322 321 320 319 318 317 316 315 313 311 309 308 306 303 301 299 299 300 300 300 299 299 298 296 295 295 293 292 292 291 292 294 295 297 298 297 297 297 297 297 297 295 295 296 296 294 294 294 293 292 291 291 289 288 287 286 285 286 287 285 283 283 284 287 293 296 297 296 295 293 291 289 286 281 273 262 253 250
319 321 322 323 326 327 327 326 325 323 322 321 321 320 319 318 318 317 316 313 310 309 307 304 301 299 298 298 298 298 298 297 298 297 296 295 294 293 293 293 294 295 295 296 297 296 296 295 295 295 294 293 295 297 298 297 296 296 295 294 292 290 288 286 286 284 283 284 284 283 282 282 282 284 288 290 292 292 293 293 291 286 283 279 274 265 256 253
319 321 322 324 327 328 327 326 325 324 323 323 322 322 321 320 320 320 318 315 312 310 307 305 303 301 299 298 297 296 295 295 296 296 295 294 293 292 292 293 294 295 296 297 296 295 294 293 293 293 292 293 294 295 295 295 296 295 294 292 291 289 288 286 285 284 284 284 283 282 281 281 281 282 284 285 285 286 289 290 288 284 280 275 270 265 257 253
317 318 320 323 325 326 325 326 325 325 325 324 324 324 323 322 322 322 320 317 314 311 309 306 303 301 300 299 298 296 295 294 294 293 293 292 291 291 292 293 294 294 295 296 295 294 294 293 293 293 293 294 294 293 291 291 291 289 288 288 288 287 286 285 284 284 285 285 283 281 281 281 281 281 280 281 282 283 285 286 285 283 280 275 268 262 260 256
314 315 316 319 321 322 323 324 324 324 325 324 324 324 323 323 323 322 321 318 315 312 310 307 304 301 299 299 298 297 296 295 294 292 291 290 289 289 290 292 293 293 294 294 294 294 294 294 295 296 296 295 294 293 291 289 287 284 283 285 285 284 283 282 281 281 282 281 280 280 280 281 282 281 278 278 280 283 283 281 280 279 280 278 271 264 261 262
312 313 314 317 319 320 321 322 323 323 323 323 323 323 323 323 323 322 320 317 314 312 310 306 304 302 300 299 299 298 296 295 293 292 290 289 288 288 289 290 290 291 291 291 292 293 293 295 296 296 295 294 293 293 293 292 290 287 285 284 283 282 281 280 279 278 278 278 278 279 281 282 283 282 281 280 281 283 282 281 279 278 279 280 277 270 265 265
310 312 313 315 317 319 320 321 321 321 321 321 321 322 322 322 323 322 320 317 314 312 310 306 304 302 300 300 299 298 296 294 293 292 289 288 287 286 287 287 287 288 289 290 291 292 292 293 294 293 292 291 291 291 291 291 291 291 290 287 285 283 281 280 279 278 277 277 278 279 280 282 283 283 284 284 284 283 282 280 279 278 277 276 275 271 267 266
308 309 311 313 315 317 318 319 320 320 320 320 320 321 321 321 322 322 320 318 315 312 310 308 306 303 300 299 298 296 295 294 293 292 289 287 286 285 286 286 287 288 290 290 290 290 290 291 291 289 288 287 287 287 287 286 287 288 287 286 285 283 281 279 278 278 277 276 277 278 278 279 280 282 283 284 284 283 282 279 277 276 275 273 272 271 267 264
306 308 309 311 313 314 316 318 319 320 320 319 319 319 320 320 320 320 319 318 315 312 310 308 306 305 302 300 297 295 293 291 290 289 287 286 285 286 287 287 288 288 288 288 288 288 288 289 289 289 288 288 286 286 285 285 286 285 284 284 282 280 278 277 276 277 277 277 277 277 277 278 279 280 281 282 281 282 282 280 279 277 275 273 273 274 272 268
304 306 308 309 311 313 315 317 319 320 320 320 319 319 319 319 319 319 318 316 314 311 309 308 306 305 304 302 300 298 296 294 291 289 287 286 286 287 287 287 286 285 285 284 285 285 286 286 288 289 288 288 288 288 288 289 288 287 286 283 280 277 276 274 274 275 275 276 277 277 276 277 279 280 281 282 283 282 281 281 280 278 277 275 275 276 277 275
303 305 306 308 309 311 314 316 318 319 320 321 320 319 319 319 319 318 316 314 312 310 308 306 305 305 304 303 302 301 300 299 296 293 291 291 289 288 288 287 285 284 283 282 282 283 284 284 286 287 287 287 287 288 288 288 288 287 287 284 282 280 277 275 274 272 271 271 273 274 274 275 277 280 281 282 283 283 282 280 278 277 276 275 275 276 277 276
301 303 305 306 308 310 312 315 316 319 320 321 321 321 320 320 319 318 315 314 312 310 308 306 305 305 304 304 304 303 303 301 299 297 295 294 292 290 289 288 287 285 284 282 282 282 283 283 284 285 286 287 287 287 287 286 285 285 284 283 284 283 282 281 279 276 272 270 271 271 271 272 273 275 276 278 279 280 281 279 277 275 273 272 273 274 275 275
301 302 304 305 306 308 310 312 314 317 320 321 322 323 322 321 320 318 316 314 312 310 308 306 306 305 305 305 304 303 302 300 299 298 297 296 294 291 289 288 287 286 285 284 283 283 283 283 283 284 286 286 286 286 285 284 284 283 283 284 284 283 283 282 282 281 278 276 275 273 272 275 275 272 272 273 274 275 276 277 276 274 272 271 270 271 272 272
298 300 301 302 304 306 307 310 313 316 319 321 322 322 322 322 320 318 317 315 312 309 307 305 305 305 305 304 303 302 301 300 298 298 297 296 295 293 292 290 288 286 285 284 284 284 284 283 283 285 287 287 286 284 283 281 281 282 283 283 282 282 282 282 281 281 279 280 281 279 279 282 282 277 273 270 268 268 269 272 274 274 273 271 270 270 270 269
296 297 298 300 302 303 305 307 310 314 318 319 320 321 321 320 319 318 317 314 312 309 306 305 305 304 304 304 303 302 300 299 298 296 295 295 294 293 293 292 291 290 288 287 287 287 286 285 285 287 288 289 288 286 284 282 282 281 281 280 280 280 280 280 280 279 279 281 280 279 281 284 283 282 279 274 269 267 265 265 267 270 271 271 269 268 268 268
293 295 296 298 299 300 303 305 308 312 316 318 318 319 319 318 317 317 317 315 312 308 305 304 303 303 303 303 303 302 300 299 298 296 295 294 294 294 294 293 292 292 291 290 290 289 289 288 288 288 289 290 289 287 285 284 284 284 282 281 280 279 279 279 279 279 281 281 278 277 280 280 278 279 280 279 276 274 270 265 263 264 267 268 268 267 268 269
291 293 294 296 298 299 301 303 306 310 314 316 317 316 316 315 315 315 315 313 311 308 305 304 302 302 302 302 303 302 302 301 299 297 296 295 294 295 295 294 294 293 293 292 292 291 289 289 288 288 288 289 288 286 285 285 285 284 283 281 280 280 279 279 280 281 282 281 279 279 280 279 277 277 277 277 278 276 273 270 266 264 263 264 265 265 266 269
291 292 294 296 298 299 300 302 305 308 312 315 316 315 314 313 312 312 311 310 309 307 304 303 302 301 301 302 303 303 302 301 299 297 296 295 295 296 296 296 295 295 295 294 294 292 291 290 289 289 288 289 288 287 286 286 285 284 283 282 281 280 281 281 281 281 280 280 280 281 280 279 280 280 276 274 273 272 271 270 268 265 263 261 261 260 259 260
291 292 294 296 298 299 300 302 304 306 310 313 314 314 312 310 309 309 307 306 306 304 302 301 301 301 301 302 303 303 303 301 299 298 296 296 296 295 295 295 294 294 294 294 293 292 290 291 291 290 289 290 290 289 288 288 287 285 284 283 282 283 283 283 282 281 280 279 280 281 279 278 279 279 277 273 270 268 267 266 264 263 261 259 258 258 257 255
291 293 295 296 298 300 301 303 304 305 308 311 312 311 310 308 307 306 306 304 302 301 300 299 300 301 301 302 303 303 302 301 299 298 297 296 295 294 294 294 294 293 293 293 291 290 289 290 290 289 289 291 292 290 289 289 287 286 286 285 286 286 285 284 282 281 279 278 278 278 277 277 277 276 274 272 269 266 264 263 262 260 258 256 256 256 256 255
291 293 295 296 298 301 302 303 305 306 308 309 309 309 308 306 305 304 304 303 301 299 298 298 299 300 300 301 302 302 301 300 300 300 299 299 299 298 297 297 296 295 295 294 293 292 292 292 292 291 291 293 294 291 289 288 288 288 289 290 291 288 285 283 281 280 279 278 278 277 277 278 277 274 271 271 269 267 264 262 261 258 256 254 253 253 254 254
291 293 295 296 298 300 302 303 305 307 308 308 308 307 306 304 303 302 301 301 300 298 296 297 298 299 299 300 300 300 301 301 302 303 303 303 302 302 301 300 299 299 298 297 296 296 296 296 296 295 294 295 295 293 292 290 290 291 293 294 291 288 284 282 281 280 280 279 278 278 277 278 277 274 271 270 269 268 267 265 261 258 255 253 250 250 251 252
Height
5870 5869 5868 5867 5866 5866 5865 5864 5863 5863 5862 5861 5860 5859 5859 5858 5857 5856 5855 5854 5853 5853 5852 5851 5850 5850 5849 5848 5847 5847 5846 5845 5844 5844 5843 5842 5841 5840 5839 5838 5837 5836 5835 5834 5833 5833 5832 5832 5832 5830 5829 5827 5826 5826 5825 5824 5823 5823 5823 5822 5822 5821 5820 5819 5818 5818 5817 5815 5815 5815 5816 5816 5816 5816 5816 5817 5816 5816 5815 5815 5815 5815 5815 5814 5813 5812 5810 5809
5869 5868 5867 5866 5866 5865 5864 5864 5863 5862 5861 5860 5860 5859 5858 5857 5856 5855 5854 5854 5853 5852 5852 5851 5850 5849 5848 5847 5847 5846 5845 5845 5844 5843 5843 5842 5841 5840 5839 5838 5837 5836 5835 5834 5834 5833 5832 5832 5831 5830 5829 5828 5827 5827 5826 5825 5824 5824 5824 5823 5822 5821 5820 5819 5819 5818 5817 5816 5815 5815 5815 5815 5816 5816 5816 5816 5816 5816 5815 5815 5815 5814 5814 5813 5813 5811 5810 5809
5868 5867 5866 5865 5865 5864 5864 5863 5862 5861 5861 5860 5859 5858 5857 5856 5856 5855 5854 5853 5852 5852 5851 5850 5849 5848 5848 5847 5846 5846 5845 5844 5844 5843 5842 5841 5841 5840 5839 5838 5837 5836 5835 5835 5834 5833 5832 5831 5830 5830 5829 5828 5828 5828 5827 5826 5826 5825 5825 5824 5823 5822 5821 5820 5820 5819 5818 5817 5817 5815 5815 5815 5815 5816 5815 5815 5815 5816 5816 5816 5815 5814 5813 5813 5812 5811 5809 5809
5867 5866 5865 5864 5864 5863 5862 5862 5861 5861 5860 5859 5858 5858 5857 5856 5855 5854 5853 5853 5852 5851 5850 5849 5849 5848 5847 5846 5846 5845 5844 5844 5843 5842 5842 5841 5840 5839 5839 5838 5837 5836 5835 5835 5834 5833 5832 5831 5831 5830 5830 5829 5829 5828 5827 5827 5826 5826 5825 5824 5823 5822 5821 5821 5820 5820 5819 5818 5817 5816 5815 5815 5815 5815 5815 5815 5815 5815 5815 5815 5814 5813 5813 5812 5811 5810 5809 5809
5866 5865 5864 5863 5863 5862 5861 5861 5860 5860 5859 5858 5858 5857 5856 5855 5854 5853 5853 5852 5851 5851 5850 5849 5848 5847 5847 5846 5845 5845 5844 5843 5843 5842 5841 5840 5840 5839 5839 5838 5837 5836 5836 5835 5834 5833 5833 5832 5831 5831 5831 5830 5829 5829 5828 5827 5826 5826 5825 5825 5824 5823 5822 5821 5821 5820 5819 5818 5817 5816 5816 5815 5815 5815 5815 5814 5814 5814 5814 5814 5814 5813 5813 5812 5811 5810 5809 5808
5865 5864 5863 5862 5862 5861 5860 5860 5859 5859 5858 5857 5857 5856 5856 5855 5854 5853 5852 5852 5851 5850 5849 5849 5848 5847 5846 5846 5845 5844 5843 5843 5842 5841 5841 5840 5839 5839 5838 5838 5837 5836 5836 5835 5834 5833 5833 5833 5832 5831 5831 5830 5830 5829 5828 5827 5826 5825 5825 5825 5824 5823 5822 5821 5820 5819 5819 5818 5817 5817 5816 5816 5815 5815 5815 5814 5813 5813 5813 5813 5813 5813 5813 5812 5811 5809 5809 5808
5864 5863 5862 5862 5861 5860 5860 5859 5858 5858 5857 5857 5856 5856 5855 5854 5853 5852 5852 5851 5851 5850 5849 5848 5848 5847 5846 5845 5845 5843 5842 5842 5841 5841 5840 5839 5839 5838 5838 5837 5837 5836 5835 5834 5834 5833 5833 5833 5832 5832 5831 5831 5830 5829 5828 5827 5825 5825 5825 5825 5825 5823 5822 5821 5820 5819 5819 5818 5817 5817 5817 5817 5816 5816 5816 5815 5814 5813 5813 5813 5813 5813 5812 5812 5811 5809 5808 5808
5863 5862 5862 5861 5860 5859 5859 5858 5857 5857 5856 5856 5855 5855 5854 5854 5853 5852 5851 5851 5850 5849 5849 5848 5847 5846 5846 5845 5844 5843 5842 5841 5840 5840 5840 5839 5838 5837 5837 5837 5836 5836 5835 5834 5833 5833 5832 5832 5832 5831 5831 5830 5830 5829 5828 5827 5826 5825 5825 5825 5825 5824 5822 5821 5820 5819 5819 5818 5817 5817 5817 5817 5817 5817 5816 5815 5814 5813 5813 5813 5813 5812 5812 5811 5811 5809 5808 5808
5863 5862 5861 5860 5859 5858 5858 5857 5856 5856 5855 5855 5854 5854 5853 5853 5853 5852 5851 5850 5850 5849 5849 5848 5847 5846 5845 5844 5843 5842 5842 5840 5839 5839 5839 5839 5838 5837 5836 5836 5836 5836 5834 5833 5832 5832 5832 5832 5832 5831 5831 5830 5830 5829 5828 5827 5826 5825 5825 5825 5824 5824 5822 5821 5820 5820 5819 5818 5817 5816 5817 5817 5818 5818 5817 5816 5815 5814 5814 5814 5813 5812 5811 5811 5810 5809 5808 5808
5862 5861 5860 5859 5858 5857 5857 5856 5856 5855 5855 5854 5854 5853 5852 5852 5852 5851 5851 5850 5850 5849 5848 5847 5847 5846 5845 5844 5843 5842 5841 5840 5839 5838 5838 5838 5837 5837 5836 5836 5836 5835 5834 5832 5831 5831 5832 5832 5831 5831 5830 5830 5829 5829 5828 5827 5826 5825 5824 5824 5823 5823 5822 5821 5821 5820 5819 5817 5817 5817 5817 5818 5818 5818 5818 5817 5815 5814 5814 5814 5813 5812 5811 5810 5810 5809 5808 5807
5860 5859 5858 5858 5857 5856 5856 5855 5855 5854 5854 5853 5853 5852 5852 5852 5851 5851 5850 5850 5849 5848 5848 5847 5846 5846 5845 5844 5842 5841 5840 5840 5839 5838 5838 5837 5836 5836 5836 5836 5835 5834 5833 5831 5830 5831 5831 5831 5831 5830 5830 5829 5828 5828 5828 5827 5826 5824 5824 5823 5822 5822 5821 5821 5820 5819 5818 5817 5817 5817 5817 5817 5818 5818 5817 5817 5816 5815 5814 5813 5812 5811 5810 5810 5809 5808 5807 5807
5860 5858 5857 5856 5856 5855 5855 5854 5854 5854 5853 5853 5853 5852 5851 5851 5850 5850 5849 5849 5848 5847 5847 5846 5846 5845 5844 5844 5842 5840 5840 5839 5839 5838 5837 5837 5836 5835 5835 5835 5834 5833 5832 5831 5831 5831 5830 5830 5830 5830 5829 5829 5828 5827 5827 5826 5826 5824 5823 5822 5821 5821 5820 5819 5819 5818 5817 5817 5817 5817 5816 5815 5816 5816 5816 5816 5815 5814 5813 5813 5812 5810 5810 5809 5808 5807 5806 5806
5859 5857 5856 5856 5855 5854 5854 5854 5853 5853 5853 5852 5852 5851 5850 5850 5850 5849 5849 5848 5847 5847 5846 5845 5845 5844 5844 5843 5841 5840 5839 5839 5838 5837 5837 5836 5836 5835 5834 5834 5833 5832 5831 5831 5831 5830 5829 5829 5829 5829 5828 5828 5827 5826 5826 5825 5825 5824 5822 5821 5820 5819 5818 5818 5818 5817 5816 5816 5816 5816 5815 5814 5814 5814 5814 5814 5813 5813 5812 5811 5810 5810 5809 5808 5807 5807 5806 5805
5858 5857 5856 5855 5854 5854 5853 5853 5853 5852 5852 5852 5851 5850 5849 5849 5849 5848 5848 5847 5846 5846 5845 5844 5844 5844 5843 5843 5841 5839 5839 5839 5837 5836 5836 5836 5835 5835 5834 5833 5832 5831 5830 5830 5831 5830 5828 5828 5828 5827 5827 5826 5826 5825 5824 5823 5823 5823 5821 5820 5819 5818 5817 5816 5816 5816 5815 5814 5814 5815 5814 5813 5813 5813 5812 5812 5811 5811 5810 5810 5809 5809 5808 5807 5807 5806 5805 5804
5858 5857 5855 5854 5854 5853 5853 5853 5852 5852 5851 5851 5850 5849 5849 5848 5848 5848 5847 5847 5846 5845 5844 5844 5844 5843 5842 5842 5841 5840 5838 5838 5837 5836 5835 5835 5835 5835 5834 5833 5832 5830 5829 5829 5830 5829 5828 5828 5827 5826 5825 5824 5824 5824 5823 5822 5821 5821 5821 5819 5818 5818 5817 5816 5815 5815 5814 5813 5813 5812 5813 5813 5813 5812 5811 5810 5810 5809 5809 5809 5808 5807 5807 5806 5806 5805 5804 5804
5858 5856 5855 5854 5853 5853 5852 5852 5852 5851 5851 5850 5850 5849 5849 5848 5848 5848 5847 5846 5846 5845 5844 5843 5843 5843 5842 5841 5840 5839 5838 5837 5836 5835 5834 5834 5834 5834 5833 5832 5831 5830 5828 5828 5829 5828 5828 5827 5827 5825 5824 5822 5822 5822 5822 5821 5819 5819 5819 5819 5818 5818 5818 5816 5814 5813 5812 5812 5812 5811 5810 5811 5812 5812 5810 5809 5808 5807 5807 5808 5807 5806 5805 5805 5804 5804 5803 5803
5858 5856 5855 5854 5853 5853 5852 5852 5851 5851 5851 5850 5850 5849 5848 5848 5848 5848 5847 5846 5846 5845 5844 5842 5842 5842 5842 5841 5840 5839 5837 5836 5835 5835 5834 5833 5833 5833 5832 5832 5830 5829 5828 5827 5827 5827 5827 5827 5826 5824 5822 5820 5819 5820 5820 5820 5818 5817 5817 5817 5817 5816 5816 5816 5814 5811 5810 5810 5810 5809 5808 5808 5809 5809 5809 5807 5805 5805 5806 5806 5806 5805 5804 5804 5803 5802 5802 5802
5858 5856 5855 5854 5853 5853 5852 5852 5851 5851 5851 5850 5850 5849 5848 5848 5848 5848 5847 5846 5845 5845 5843 5842 5841 5841 5841 5841 5839 5838 5837 5835 5834 5834 5833 5832 5832 5831 5831 5831 5830 5828 5827 5826 5826 5826 5826 5825 5825 5823 5820 5818 5818 5818 5818 5818 5817 5816 5815 5815 5815 5815 5815 5815 5814 5811 5808 5807 5807 5806 5805 5805 5806 5807 5807 5806 5803 5803 5804 5805 5805 5804 5803 5803 5802 5801 5801 5801
5858 5857 5855 5854 5854 5853 5852 5852 5851 5851 5851 5850 5850 5849 5849 5848 5847 5847 5846 5846 5845 5844 5843 5841 5840 5840 5840 5840 5839 5837 5836 5834 5833 5833 5832 5831 5831 5830 5830 5830 5829 5827 5826 5825 5824 5825 5824 5824 5823 5820 5817 5816 5817 5816 5816 5815 5815 5814 5813 5813 5813 5813 5813 5813 5813 5810 5806 5805 5805 5805 5803 5803 5804 5805 5804 5803 5802 5801 5802 5802 5803 5803 5803 5802 5801 5801 5800 5800
5858 5856 5855 5855 5854 5853 5853 5852 5851 5851 5851 5850 5850 5849 5848 5848 5848 5847 5846 5845 5844 5843 5842 5841 5840 5839 5839 5838 5838 5836 5835 5833 5832 5832 5832 5831 5830 5829 5828 5828 5827 5826 5825 5823 5822 5822 5822 5822 5820 5817 5815 5815 5815 5814 5814 5813 5812 5811 5811 5811 5810 5811 5811 5810 5810 5809 5804 5801 5803 5803 5801 5801 5802 5803 5802 5801 5801 5800 5799 5800 5801 5801 5801 5801 5801 5800 5800 5799
5857 5856 5855 5854 5854 5853 5853 5852 5852 5851 5851 5850 5849 5849 5848 5847 5847 5847 5846 5844 5843 5843 5842 5840 5839 5838 5838 5837 5837 5835 5834 5833 5832 5832 5831 5830 5829 5828 5827 5826 5825 5824 5823 5821 5820 5820 5820 5820 5817 5814 5814 5814 5813 5812 5812 5810 5809 5809 5808 5808 5808 5808 5807 5808 5808 5806 5801 5798 5800 5801 5799 5800 5800 5800 5800 5800 5799 5798 5797 5797 5798 5798 5799 5799 5799 5799 5799 5798
5857 5856 5855 5854 5853 5853 5852 5852 5852 5851 5851 5850 5849 5849 5848 5847 5846 5846 5846 5845 5843 5842 5841 5840 5839 5838 5837 5837 5836 5834 5833 5832 5831 5831 5829 5829 5828 5827 5826 5825 5824 5823 5822 5820 5819 5819 5819 5817 5814 5813 5813 5812 5811 5810 5810 5809 5807 5806 5805 5805 5806 5805 5804 5805 5806 5803 5799 5797 5797 5797 5797 5798 5799 5798 5798 5797 5797 5796 5795 5795 5795 5795 5796 5796 5797 5797 5796 5796
5856 5855 5855 5854 5853 5852 5852 5851 5851 5851 5850 5850 5849 5849 5847 5846 5845 5844 5844 5843 5843 5842 5840 5839 5838 5837 5836 5835 5834 5833 5832 5831 5830 5829 5828 5827 5827 5826 5825 5824 5823 5822 5820 5820 5819 5819 5818 5815 5813 5813 5812 5811 5810 5809 5808 5807 5805 5804 5804 5803 5803 5802 5800 5801 5803 5801 5799 5797 5795 5794 5794 5795 5796 5795 5795 5794 5794 5794 5793 5793 5793 5793 5793 5793 5793 5794 5794 5794
5855 5854 5854 5854 5853 5852 5851 5851 5850 5850 5849 5849 5848 5848 5847 5846 5844 5843 5842 5841 5841 5840 5839 5838 5837 5836 5835 5834 5833 5832 5831 5830 5829 5828 5827 5826 5825 5825 5824 5823 5822 5821 5819 5819 5818 5819 5817 5813 5812 5812 5811 5810 5809 5808 5806 5804 5803 5802 5802 5801 5800 5799 5797 5797 5798 5798 5798 5798 5794 5791 5790 5793 5794 5792 5792 5791 5790 5791 5791 5790 5791 5790 5790 5790 5790 5791 5791 5792
5855 5854 5853 5853 5852 5852 5851 5850 5850 5849 5848 5848 5847 5847 5846 5845 5843 5842 5841 5840 5839 5838 5838 5837 5836 5835 5834 5833 5832 5830 5830 5829 5828 5828 5826 5825 5824 5823 5823 5822 5820 5819 5818 5817 5817 5817 5815 5812 5811 5810 5809 5808 5808 5808 5805 5802 5801 5800 5801 5800 5797 5796 5795 5794 5794 5793 5794 5796 5795 5790 5788 5790 5792 5791 5789 5789 5788 5788 5788 5787 5787 5787 5786 5786 5787 5788 5789 5789
5855 5854 5853 5852 5851 5851 5850 5850 5849 5848 5847 5847 5846 5845 5845 5844 5843 5841 5840 5839 5837 5836 5836 5835 5834 5833 5832 5831 5831 5829 5828 5827 5826 5826 5825 5824 5823 5822 5821 5819 5818 5817 5815 5815 5815 5814 5813 5811 5810 5809 5808 5807 5806 5806 5804 5801 5798 5798 5800 5799 5795 5794 5793 5792 5792 5790 5789 5791 5792 5791 5787 5785 5787 5789 5788 5786 5786 5786 5785 5784 5784 5784 5784 5784 5784 5785 5786 5787
5854 5853 5853 5852 5851 5850 5849 5849 5848 5847 5846 5845 5845 5844 5843 5842 5841 5840 5839 5838 5837 5835 5834 5833 5832 5830 5830 5829 5829 5828 5827 5825 5824 5823 5823 5822 5821 5820 5818 5817 5816 5814 5813 5813 5813 5812 5811 5809 5808 5807 5806 5805 5804 5803 5801 5799 5797 5797 5798 5797 5794 5793 5792 5790 5790 5788 5787 5786 5786 5787 5785 5781 5781 5784 5784 5783 5783 5783 5782 5782 5781 5781 5781 5781 5782 5782 5783 5784
5853 5852 5851 5851 5850 5849 5848 5847 5847 5846 5845 5844 5843 5842 5842 5841 5840 5839 5838 5837 5836 5834 5833 5831 5830 5829 5827 5827 5826 5825 5825 5825 5823 5821 5820 5820 5819 5818 5816 5814 5813 5812 5810 5810 5811 5810 5809 5807 5806 5805 5804 5803 5802 5801 5799 5797 5795 5795 5795 5794 5792 5791 5790 5789 5787 5786 5785 5783 5782 5784 5782 5778 5777 5779 5780 5781 5781 5780 5780 5779 5779 5779 5779 5779 5779 5779 5780 5781
5852 5851 5850 5849 5849 5848 5847 5846 5845 5844 5843 5842 5841 5841 5840 5839 5838 5837 5836 5835 5834 5833 5832 5830 5829 5827 5826 5824 5823 5822 5822 5822 5821 5819 5818 5817 5816 5815 5813 5811 5809 5809 5808 5808 5808 5809 5807 5805 5804 5803 5801 5800 5799 5798 5797 5794 5793 5793 5791 5791 5790 5788 5787 5786 5784 5783 5782 5779 5779 5781 5779 5775 5774 5775 5777 5778 5778 5777 5777 5776 5776 5776 5776 5777 5776 5776 5777 5778
5851 5850 5848 5848 5847 5846 5845 5844 5843 5842 5841 5840 5839 5838 5838 5837 5836 5835 5834 5833 5832 5831 5830 5828 5827 5825 5824 5823 5821 5820 5819 5819 5818 5817 5815 5814 5813 5811 5810 5809 5807 5806 5806 5805 5805 5805 5804 5803 5802 5800 5798 5797 5796 5796 5794 5792 5790 5789 5787 5786 5786 5785 5784 5782 5781 5780 5777 5775 5777 5778 5776 5773 5771 5771 5773 5775 5775 5774 5774 5773 5773 5773 5773 5774 5774 5774 5774 5775
5849 5848 5847 5846 5846 5845 5843 5842 5841 5840 5839 5838 5837 5836 5835 5835 5834 5833 5832 5830 5829 5828 5827 5825 5824 5822 5821 5821 5819 5818 5816 5815 5815 5814 5812 5811 5810 5808 5806 5805 5804 5803 5802 5802 5801 5801 5801 5800 5799 5797 5795 5793 5792 5792 5791 5789 5787 5785 5783 5782 5781 5781 5780 5779 5778 5776 5773 5773 5774 5773 5771 5770 5769 5769 5771 5772 5771 5771 5770 5770 5770 5770 5770 5771 5771 5771 5772 5772
5847 5847 5846 5845 5844 5843 5842 5841 5840 5838 5837 5836 5835 5833 5832 5832 5831 5831 5829 5828 5827 5826 5824 5822 5820 5819 5818 5817 5817 5816 5814 5812 5812 5810 5809 5807 5805 5803 5802 5800 5800 5799 5798 5799 5798 5796 5796 5796 5795 5793 5791 5789 5788 5788 5787 5785 5784 5782 5780 5779 5778 5777 5776 5775 5774 5773 5771 5770 5771 5769 5767 5766 5766 5767 5768 5769 5769 5768 5767 5767 5767 5767 5767 5767 5768 5768 5768 5768
5845 5844 5844 5843 5842 5841 5840 5839 5837 5836 5835 5833 5832 5831 5829 5829 5828 5828 5827 5825 5823 5822 5821 5819 5817 5815 5813 5813 5813 5812 5810 5809 5809 5807 5805 5803 5801 5799 5798 5797 5796 5795 5794 5794 5793 5791 5791 5791 5791 5790 5787 5786 5785 5784 5783 5782 5781 5779 5776 5775 5774 5773 5771 5770 5770 5768 5767 5767 5767 5765 5764 5762 5763 5765 5765 5765 5766 5765 5765 5764 5764 5764 5764 5764 5764 5764 5764 5765
5843 5842 5841 5841 5840 5839 5837 5836 5835 5834 5832 5830 5829 5828 5826 5825 5825 5824 5823 5822 5820 5818 5817 5816 5814 5811 5809 5808 5808 5808 5806 5806 5805 5804 5801 5799 5797 5794 5793 5792 5791 5790 5790 5789 5787 5785 5785 5785 5785 5785 5784 5782 5781 5780 5779 5778 5778 5776 5774 5773 5772 5770 5768 5766 5765 5764 5762 5762 5761 5761 5759 5757 5759 5762 5762 5762 5762 5762 5762 5761 5760 5760 5760 5760 5761 5761 5761 5762
5841 5840 5839 5838 5837 5836 5835 5834 5832 5831 5829 5828 5826 5825 5823 5822 5821 5820 5819 5818 5816 5815 5813 5812 5810 5808 5806 5805 5804 5803 5802 5801 5801 5800 5797 5795 5793 5790 5789 5788 5787 5786 5785 5784 5782 5780 5779 5779 5780 5780 5779 5777 5776 5775 5774 5774 5774 5772 5771 5770 5768 5767 5764 5762 5761 5760 5758 5756 5755 5756 5755 5754 5754 5756 5758 5758 5758 5758 5758 5757 5757 5756 5756 5756 5757 5758 5758 5759
5838 5837 5836 5835 5834 5833 5832 5831 5830 5828 5827 5825 5823 5821 5820 5818 5817 5816 5815 5813 5812 5811 5810 5808 5806 5804 5803 5802 5800 5799 5798 5797 5796 5796 5793 5791 5788 5786 5785 5784 5783 5782 5781 5779 5778 5776 5775 5775 5775 5775 5773 5772 5770 5769 5768 5768 5767 5767 5767 5767 5764 5762 5760 5758 5756 5755 5754 5751 5749 5751 5750 5749 5749 5749 5751 5753 5754 5754 5754 5753 5753 5752 5752 5752 5752 5752 5753 5754
5835 5834 5833 5832 5831 5830 5829 5828 5827 5825 5824 5822 5820 5818 5816 5814 5813 5812 5810 5809 5807 5806 5805 5804 5803 5801 5799 5798 5797 5796 5794 5792 5791 5791 5789 5786 5784 5782 5781 5781 5779 5777 5777 5776 5774 5773 5770 5770 5771 5770 5768 5768 5766 5764 5764 5762 5761 5761 5761 5761 5760 5758 5756 5753 5750 5749 5748 5745 5744 5746 5746 5745 5745 5744 5744 5747 5748 5749 5749 5749 5748 5747 5746 5746 5746 5747 5748 5749
5832 5831 5830 5829 5829 5827 5826 5825 5823 5822 5820 5819 5817 5815 5813 5810 5809 5807 5806 5804 5802 5801 5800 5799 5799 5798 5796 5795 5794 5792 5790 5788 5786 5785 5783 5781 5779 5777 5776 5776 5775 5774 5773 5772 5770 5768 5766 5765 5766 5764 5763 5763 5762 5760 5760 5758 5758 5757 5756 5755 5754 5752 5750 5748 5745 5742 5741 5738 5737 5739 5741 5741 5741 5740 5740 5741 5742 5743 5744 5744 5742 5741 5740 5742 5742 5742 5742 5743
5829 5828 5827 5826 5825 5824 5823 5822 5820 5818 5817 5815 5813 5811 5809 5807 5804 5803 5801 5800 5798 5797 5795 5794 5793 5792 5791 5790 5789 5788 5787 5785 5783 5781 5779 5776 5775 5774 5773 5772 5772 5770 5769 5767 5765 5764 5762 5760 5759 5759 5758 5757 5756 5755 5754 5753 5753 5753 5752 5750 5748 5746 5744 5743 5741 5737 5734 5732 5730 5731 5735 5736 5736 5736 5735 5736 5737 5738 5738 5738 5736 5735 5736 5738 5738 5737 5737 5738
5826 5825 5824 5823 5822 5820 5820 5818 5817 5815 5813 5811 5809 5807 5806 5803 5801 5798 5796 5795 5794 5792 5791 5790 5788 5787 5786 5785 5784 5783 5782 5780 5779 5777 5775 5773 5772 5771 5769 5769 5768 5766 5765 5763 5761 5759 5758 5756 5754 5754 5753 5751 5750 5749 5748 5748 5747 5746 5746 5744 5742 5741 5739 5737 5736 5734 5730 5726 5724 5723 5726 5731 5732 5731 5730 5730 5731 5733 5733 5733 5731 5730 5731 5733 5732 5731 5732 5733
5822 5821 5820 5819 5818 5816 5815 5814 5813 5811 5809 5807 5805 5803 5801 5800 5797 5794 5791 5790 5789 5788 5787 5785 5784 5783 5782 5780 5779 5778 5776 5775 5774 5772 5771 5770 5769 5767 5766 5764 5763 5762 5761 5759 5757 5755 5754 5752 5750 5750 5749 5748 5747 5746 5744 5743 5741 5740 5739 5737 5736 5735 5734 5731 5730 5731 5727 5722 5720 5717 5717 5724 5729 5727 5725 5725 5725 5725 5726 5727 5726 5725 5726 5727 5726 5725 5726 5727
5818 5817 5816 5815 5814 5812 5811 5810 5809 5807 5806 5803 5802 5800 5797 5795 5794 5791 5788 5786 5785 5783 5782 5780 5780 5778 5777 5776 5774 5773 5771 5770 5769 5767 5766 5766 5764 5763 5761 5760 5759 5758 5756 5754 5753 5751 5749 5747 5745 5745 5745 5744 5742 5742 5740 5738 5737 5736 5734 5731 5730 5729 5727 5724 5722 5723 5721 5717 5717 5713 5708 5716 5726 5724 5721 5721 5720 5719 5719 5719 5719 5719 5720 5721 5720 5718 5719 5720
5814 5813 5812 5811 5810 5809 5807 5806 5805 5803 5801 5799 5798 5796 5794 5792 5789 5787 5785 5783 5782 5780 5778 5776 5775 5774 5772 5771 5769 5768 5766 5764 5763 5763 5762 5760 5760 5758 5757 5756 5754 5753 5751 5749 5748 5746 5744 5741 5739 5740 5741 5740 5737 5736 5735 5733 5731 5730 5729 5727 5725 5723 5721 5718 5714 5712 5710 5710 5711 5707 5701 5708 5718 5719 5716 5715 5715 5715 5713 5711 5711 5711 5713 5715 5714 5713 5713 5713
5810 5809 5808 5807 5806 5805 5803 5802 5800 5799 5797 5795 5793 5791 5789 5788 5786 5784 5782 5780 5779 5777 5774 5772 5771 5770 5768 5767 5765 5763 5762 5760 5758 5758 5757 5755 5754 5753 5752 5751 5750 5748 5746 5744 5742 5741 5739 5735 5733 5733 5735 5735 5734 5732 5729 5728 5726 5725 5724 5722 5719 5717 5714 5712 5708 5704 5701 5703 5705 5698 5693 5702 5709 5708 5708 5708 5707 5708 5708 5706 5705 5704 5705 5708 5708 5707 5707 5707
5807 5805 5804 5803 5802 5801 5800 5798 5797 5795 5793 5792 5789 5787 5785 5783 5781 5780 5779 5777 5776 5774 5771 5769 5768 5766 5765 5763 5761 5759 5757 5756 5754 5753 5752 5751 5749 5748 5747 5745 5744 5742 5741 5739 5737 5736 5733 5730 5728 5728 5727 5726 5727 5725 5722 5722 5722 5721 5720 5717 5714 5712 5709 5705 5701 5696 5694 5697 5697 5691 5688 5695 5700 5698 5698 5699 5698 5699 5702 5702 5700 5698 5698 5700 5701 5701 5700 5700
5802 5801 5800 5798 5797 5796 5795 5794 5793 5792 5790 5788 5786 5784 5782 5779 5776 5774 5773 5772 5771 5770 5768 5766 5765 5763 5761 5760 5758 5755 5753 5752 5750 5748 5747 5746 5745 5744 5743 5741 5738 5737 5735 5734 5732 5730 5727 5724 5722 5722 5721 5718 5717 5716 5714 5714 5714 5714 5713 5709 5706 5705 5703 5698 5693 5690 5690 5688 5685 5686 5686 5686 5691 5694 5690 5688 5689 5691 5693 5695 5694 5693 5693 5692 5692 5693 5694 5693
5797 5795 5795 5793 5792 5791 5790 5789 5788 5787 5785 5784 5782 5780 5778 5776 5773 5770 5768 5767 5765 5764 5763 5762 5761 5760 5758 5756 5754 5752 5750 5749 5746 5744 5743 5741 5739 5739 5737 5735 5733 5731 5730 5728 5726 5724 5721 5719 5716 5715 5715 5712 5708 5705 5705 5706 5706 5706 5704 5701 5698 5696 5694 5690 5686 5685 5684 5676 5671 5680 5681 5675 5681 5690 5687 5681 5682 5682 5682 5684 5685 5686 5686 5685 5685 5685 5686 5687
5791 5790 5789 5788 5787 5785 5784 5783 5782 5781 5780 5778 5777 5775 5773 5771 5769 5767 5764 5763 5761 5759 5758 5757 5757 5755 5753 5752 5750 5748 5747 5745 5743 5740 5738 5736 5734 5733 5732 5729 5727 5726 5724 5721 5720 5716 5713 5711 5709 5707 5708 5708 5702 5695 5696 5698 5697 5696 5695 5692 5689 5688 5685 5682 5679 5678 5674 5666 5664 5672 5672 5667 5672 5681 5680 5675 5674 5673 5673 5673 5674 5676 5678 5677 5677 5677 5678 5679
5786 5785 5784 5783 5781 5780 5779 5778 5777 5776 5775 5773 5771 5770 5768 5766 5764 5762 5760 5758 5757 5755 5753 5752 5751 5750 5748 5747 5745 5743 5742 5740 5738 5736 5734 5732 5730 5728 5727 5725 5723 5721 5718 5716 5714 5709 5705 5704 5702 5697 5698 5702 5697 5687 5686 5689 5686 5684 5685 5683 5681 5680 5678 5674 5670 5668 5665 5659 5658 5661 5660 5660 5667 5671 5667 5665 5664 5663 5663 5663 5664 5666 5668 5668 5669 5669 5670 5671
5781 5779 5778 5777 5776 5775 5774 5773 5772 5771 5771 5769 5767 5765 5763 5761 5759 5757 5755 5754 5752 5751 5749 5748 5746 5745 5743 5742 5740 5738 5736 5734 5732 5731 5729 5727 5726 5723 5722 5720 5718 5715 5713 5711 5707 5703 5699 5697 5695 5689 5686 5694 5694 5682 5677 5678 5675 5672 5674 5675 5674 5672 5669 5664 5660 5658 5656 5652 5652 5651 5647 5651 5661 5661 5654 5652 5653 5653 5652 5653 5655 5657 5659 5659 5660 5661 5661 5662
5775 5774 5773 5772 5771 5770 5768 5767 5767 5766 5766 5764 5762 5761 5759 5756 5754 5751 5750 5749 5747 5745 5744 5743 5742 5740 5739 5737 5735 5733 5731 5728 5726 5725 5723 5721 5720 5717 5715 5713 5711 5708 5706 5703 5699 5696 5692 5689 5688 5682 5675 5681 5686 5676 5668 5668 5665 5662 5663 5665 5666 5662 5657 5654 5651 5648 5646 5643 5642 5641 5638 5641 5650 5650 5643 5641 5642 5642 5642 5644 5646 5647 5649 5650 5651 5652 5652 5653
5769 5768 5767 5766 5765 5764 5763 5762 5761 5760 5760 5759 5757 5755 5753 5751 5749 5746 5744 5743 5742 5741 5739 5738 5737 5736 5734 5733 5731 5728 5726 5724 5721 5719 5717 5714 5713 5710 5707 5705 5702 5699 5696 5693 5689 5687 5683 5678 5678 5672 5664 5670 5675 5665 5658 5656 5653 5654 5656 5654 5652 5648 5644 5643 5642 5639 5638 5634 5630 5629 5629 5630 5634 5635 5633 5632 5632 5633 5635 5636 5636 5637 5638 5639 5640 5642 5643 5643